CZ-6A DEB, 60784

Orbit data source: Space-Track

CZ-6A DEB, 60784 is space debris in LEO originally from a launch on Tue, 06 Aug 2024 UTC launched from the Taiyaun Space Center, China (TSC). Debris objects in space refer to the collection of defunct objects orbiting the Earth. Examples of debris include non-operational satellites, rocket bodies, and fragments generated from explosions, collisions, or faulty payload assembly.

Loading next visibility...
Identifier
60784, 2024-140FK
Orbit
LEO
Country
Flag of CNCN / PRC
Related business
Manufacturer
SAST
Mission
Spacecraft
Bus & Motor
Unknown
Mass
Unknown
Launch date (UTC)
2024-08-06 (2 years ago)
Launch vehicle
Unknown
Launch site
Taiyaun Space Center, China (TSC)
Object type
Payload
Rocket body
Debris
Shape & HBR
Unknown shape, 0.2 m
Radar Cross Section
Medium (>0.1 m² and <1 m²)

Expand to show TLE details & history
Last TLE update: 14 hours ago

TLE from 14 hours ago
0 CZ-6A DEB
1 60784U 24140FK  26171.27702194  .00000552  00000-0  17672-3 0  9993
2 60784  89.0086 272.8294 0066763   2.6722 357.4820 14.37008339 94997
Epoch: 2026-06-20T06:38Z
TLE epoch observation values (Epoch: 2026-06-20T06:38:54.695Z)
Latitude
-0.00008°
Longitude
-95.39245°
Altitude
723.802 km
Speed
7.518 km/s
True Right ascension
18h 11m 19s
True Declination
0° 00' 00"
Sunlit
Object was in full shadow at epoch
Visualization orbit readout
Latitude
Unknown
Longitude
Unknown
Altitude
Unknown
Speed
Unknown
Apparent Right ascension
Unknown
Apparent Declination
Unknown
Sunlit
N/A
Visualization observer readout
Local Sidereal Time
07:19:25
Azimuth
Unknown
Elevation
Unknown
Doppler factor
Unknown
Orbital elements
Apogee altitude
813.019 km
Perigee altitude
717.635 km
Semi-major axis
7,143.464 km
Eccentricity
0.00668
Inclination
89.0086°
RAAN
272.8294°
Arg. of periapsis
2.6722°
True anomaly
357.44811°
Mean anomaly
357.482°
Eccentric anomaly
357.46508°
Mean motion
3.59484 °/min
Orbital period
100.14 mins
BSTAR
0.00017672
Loading maneuver chart data...
Computing Atmospheric mass density...
Loading historical data...
Loading historical data...
Loading historical data...
Loading historical data...
Loading historical data...
Loading historical data...
Loading historical data...

Documentation

Showing up to 5 results
|